GW0859 Weather Reports


time (UTC)temp
C
wind
direction
speed
KPH
gust
KPH
rain 1hr
cm
rain 24hr
cm
rain mn
cm
humidity
%
barometer
mb
20260901024314 19 148 0.0 0.0 0.00 0.05 0.05 99 1019.7
20260901023313 19 148 0.0 0.0 0.00 0.05 0.05 99 1019.9
20260901022310 19 148 0.0 0.0 0.00 0.05 0.05 99 1019.8
20260901021307 19 148 0.0 0.0 0.00 0.05 0.05 99 1019.9
20260901020303 19 148 0.0 0.0 0.00 0.05 0.05 99 1020.2
20260901015300 19 148 0.0 0.0 0.00 0.05 0.05 99 1019.9
20260901014254 19 148 0.0 0.0 0.00 0.05 0.05 99 1020.0
20260901013251 19 148 0.0 0.0 0.00 0.05 0.05 99 1020.2
20260901012247 19 148 0.0 0.0 0.00 0.05 0.05 99 1020.1
20260901011243 19 148 0.0 0.0 0.00 0.05 0.05 99 1019.8
20260901010238 19 148 0.0 0.0 0.00 0.05 0.05 99 1019.9
20260901005238 19 148 0.0 0.0 0.00 0.05 0.05 99 1019.8
20260901004233 19 148 0.0 0.0 0.00 0.05 0.05 99 1019.8
20260901003233 19 148 0.0 0.0 0.00 0.05 0.05 99 1019.9
20260901002233 19 148 0.0 0.0 0.00 0.05 0.05 99 1019.6
20260901001230 20 148 0.0 0.0 0.00 0.05 0.05 99 1019.8
20260901000226 20 148 0.0 0.0 0.00 0.05 0.05 99 1019.8
20260831235221 20 148 0.0 0.0 0.00 0.05 0.05 99 1019.6
20260831234221 20 148 0.0 0.0 0.00 0.05 0.05 99 1019.7
20260831233218 20 148 0.0 0.0 0.00 0.05 0.05 99 1019.8
20260831232214 20 148 0.0 0.0 0.00 0.05 0.05 99 1019.6
20260831231212 20 148 0.0 1.6 0.00 0.05 0.05 99 1019.7
20260831230207 21 154 0.0 0.0 0.00 0.05 0.05 99 1019.8
20260831225207 21 154 0.0 0.0 0.00 0.05 0.05 99 1019.9
20260831224203 21 156 0.0 0.0 0.00 0.05 0.05 99 1020.0
20260831223201 21 168 0.0 0.0 0.00 0.05 0.05 99 1020.3
20260831222158 21 183 0.0 0.0 0.00 0.05 0.05 98 1020.2
20260831221154 21 179 0.0 0.0 0.00 0.05 0.05 98 1020.2
20260831220151 21 175 0.0 0.0 0.00 0.05 0.05 98 1020.2
20260831215147 21 159 0.0 1.6 0.00 0.05 0.05 97 1020.3
20260831214147 21 179 0.0 0.0 0.00 0.05 0.05 97 1020.1
20260831213143 21 175 0.0 0.0 0.00 0.05 0.05 97 1020.2
20260831212142 21 190 0.0 1.6 0.00 0.05 0.05 98 1020.2
20260831211141 21 179 0.0 1.6 0.00 0.05 0.05 98 1020.5
20260831210138 21 149 1.6 1.6 0.00 0.05 0.05 97 1020.5
20260831205133 21 171 0.0 0.0 0.00 0.05 0.05 97 1020.4
20260831204131 21 171 0.0 0.0 0.00 0.05 0.05 97 1020.5
20260831203131 21 171 0.0 0.0 0.00 0.05 0.05 98 1020.7
20260831202131 21 155 0.0 1.6 0.00 0.05 0.05 98 1020.8
20260831201131 21 150 0.0 0.0 0.00 0.05 0.05 97 1020.9
20260831200127 21 158 0.0 1.6 0.00 0.05 0.05 95 1020.8
20260831195123 22 175 0.0 0.0 0.18 0.05 0.05 96 1020.9
20260831194119 22 169 0.0 0.0 0.13 0.03 0.03 94 1020.9
20260831193114 22 177 1.6 1.6 0.00 0.00 0.00 91 1020.9
20260831192111 23 199 1.6 3.2 0.00 0.00 0.00 87 1021.2
20260831191109 23 249 4.8 4.8 0.00 0.00 0.00 85 1021.3
20260831190108 22 169 0.0 0.0 0.00 0.00 0.00 89 1021.6
20260831185106 22 40 0.0 1.6 0.00 0.00 0.00 89 1021.7
20260831184101 22 158 0.0 1.6 0.00 0.00 0.00 90 1021.6
20260831183100 21 144 0.0 0.0 0.00 0.00 0.00 92 1021.6
20260831182055 21 173 0.0 0.0 0.00 0.00 0.00 93 1021.6
20260831181055 21 227 1.6 1.6 0.00 0.00 0.00 92 1021.8
20260831180052 21 154 0.0 0.0 0.00 0.00 0.00 92 1021.8
20260831175049 22 197 0.0 1.6 0.00 0.00 0.00 90 1021.9
20260831174049 22 190 0.0 0.0 0.00 0.00 0.00 89 1022.0
20260831173044 22 201 0.0 1.6 0.00 0.00 0.00 88 1022.1
20260831172040 22 186 1.6 1.6 0.00 0.00 0.00 87 1021.8
20260831171038 22 109 1.6 1.6 0.00 0.00 0.00 88 1021.7
20260831170037 22 192 0.0 1.6 0.00 0.00 0.00 89 1021.7
20260831165033 22 172 0.0 0.0 0.00 0.00 0.00 91 1021.8
20260831164031 21 119 0.0 0.0 0.00 0.00 0.00 90 1021.9
20260831163027 21 118 0.0 0.0 0.00 0.00 0.00 90 1021.9
20260831162024 22 113 0.0 0.0 0.00 0.00 0.00 90 1021.9
20260831161022 22 151 0.0 0.0 0.00 0.00 0.00 89 1022.0
20260831160017 22 168 1.6 1.6 0.00 0.00 0.00 90 1022.2
20260831155012 22 163 1.6 3.2 0.00 0.00 0.00 89 1021.9
20260831154008 21 171 3.2 3.2 0.00 0.00 0.00 89 1022.2
20260831153006 21 179 0.0 1.6 0.00 0.00 0.00 91 1022.2
20260831152001 20 188 1.6 1.6 0.00 0.00 0.00 92 1022.3
20260831151001 21 167 0.0 1.6 0.00 0.00 0.00 91 1022.2
20260831145957 21 140 0.0 0.0 0.00 0.00 0.00 93 1022.1
20260831144954 21 149 3.2 3.2 0.00 0.00 0.00 94 1022.0
20260831143951 20 148 1.6 1.6 0.00 0.00 0.00 95 1022.2
20260831142947 20 156 0.0 0.0 0.00 0.00 0.00 95 1022.6
20260831141943 21 133 0.0 0.0 0.00 0.00 0.00 95 1022.5
20260831140938 20 156 0.0 0.0 0.00 0.00 0.00 94 1022.2
20260831135937 20 149 0.0 1.6 0.00 0.00 0.00 95 1022.2
20260831134937 20 172 0.0 0.0 0.00 0.00 0.00 95 1022.2
20260831133934 20 172 0.0 0.0 0.00 0.00 0.00 95 1022.3
20260831132929 20 172 0.0 0.0 0.00 0.00 0.00 95 1022.2
20260831131929 20 168 0.0 1.6 0.00 0.00 0.00 96 1022.0
20260831130926 19 180 0.0 0.0 0.00 0.00 0.00 99 1022.0
20260831125921 18 179 0.0 0.0 0.00 0.00 0.00 99 1021.9
20260831124917 18 179 0.0 1.6 0.00 0.00 0.00 99 1022.0
20260831123914 18 179 0.0 0.0 0.00 0.00 0.00 99 1022.2
20260831122913 18 179 0.0 0.0 0.00 0.00 0.00 99 1022.0
20260831121909 18 180 0.0 0.0 0.00 0.00 0.00 99 1022.3
20260831120907 18 176 0.0 0.0 0.00 0.00 0.00 99 1022.1
20260831115907 17 176 0.0 0.0 0.00 0.00 0.00 99 1022.1
20260831114903 17 176 0.0 0.0 0.00 0.00 0.00 99 1022.0
20260831113858 17 176 0.0 0.0 0.00 0.00 0.00 99 1021.9
20260831112853 17 176 0.0 0.0 0.00 0.00 0.00 99 1022.0
20260831111849 17 176 0.0 0.0 0.00 0.00 0.00 99 1022.0
20260831110846 17 176 0.0 0.0 0.00 0.00 0.00 99 1021.8
20260831105844 17 176 0.0 0.0 0.00 0.00 0.00 99 1021.5
20260831104842 17 176 0.0 0.0 0.00 0.00 0.00 99 1021.3
20260831103838 17 176 0.0 0.0 0.00 0.00 0.00 99 1021.5
20260831102834 17 174 0.0 0.0 0.00 0.00 0.00 99 1021.1
20260831101831 17 176 0.0 0.0 0.00 0.00 0.00 99 1021.2
20260831100827 17 176 0.0 0.0 0.00 0.00 0.00 99 1021.3
20260831095823 17 159 0.0 0.0 0.00 0.00 0.00 99 1021.1
20260831094819 17 157 0.0 0.0 0.00 0.00 0.00 99 1021.4
20260831093814 17 117 0.0 0.0 0.00 0.00 0.00 99 1021.2
20260831092811 17 117 0.0 0.0 0.00 0.00 0.00 99 1021.2
20260831091808 17 119 0.0 0.0 0.00 0.00 0.00 99 1021.2
20260831090804 17 182 0.0 0.0 0.00 0.00 0.00 99 1020.9
20260831085802 17 150 0.0 0.0 0.00 0.00 0.00 99 1021.0
20260831084757 17 206 1.6 1.6 0.00 0.00 0.00 99 1020.7
20260831083755 17 161 0.0 0.0 0.00 0.00 0.00 99 1020.8
20260831082755 17 130 0.0 0.0 0.00 0.00 0.00 99 1020.6
20260831081752 17 128 0.0 0.0 0.00 0.00 0.00 99 1021.0
20260831080749 17 163 0.0 0.0 0.00 0.00 0.00 99 1020.9
20260831075745 17 164 0.0 0.0 0.00 0.00 0.00 99 1020.8
20260831074740 17 164 0.0 0.0 0.00 0.00 0.00 99 1020.8
20260831073736 17 130 0.0 0.0 0.00 0.00 0.00 99 1020.9
20260831072735 17 130 0.0 0.0 0.00 0.00 0.00 99 1020.8
20260831071732 17 140 0.0 0.0 0.00 0.00 0.00 99 1020.8
20260831070732 17 141 0.0 0.0 0.00 0.00 0.00 99 1020.9
20260831065731 17 140 0.0 0.0 0.00 0.00 0.00 99 1020.9
20260831064730 17 140 0.0 0.0 0.00 0.00 0.00 99 1021.1
20260831063727 17 111 0.0 0.0 0.00 0.00 0.00 99 1021.3
20260831062727 17 113 0.0 0.0 0.00 0.00 0.00 99 1021.2
20260831061726 17 126 0.0 0.0 0.00 0.00 0.00 99 1021.1
20260831060724 18 127 0.0 0.0 0.00 0.00 0.00 99 1021.0
20260831055724 18 127 0.0 0.0 0.00 0.00 0.00 99 1021.1
20260831054724 18 126 0.0 0.0 0.00 0.00 0.00 99 1021.1
20260831053725 18 125 0.0 0.0 0.00 0.00 0.00 99 1021.2
20260831052723 18 147 0.0 0.0 0.00 0.00 0.00 99 1021.3
20260831051721 18 151 0.0 0.0 0.00 0.00 0.00 99 1021.5
20260831050720 18 124 0.0 0.0 0.00 0.00 0.00 99 1021.4
20260831045720 18 147 0.0 0.0 0.00 0.00 0.00 99 1021.2
20260831044715 18 173 0.0 0.0 0.00 0.00 0.00 99 1021.1
20260831043712 18 126 0.0 1.6 0.00 0.00 0.00 99 1021.4
20260831042712 18 181 0.0 0.0 0.00 0.00 0.00 99 1021.3
20260831041708 18 182 0.0 0.0 0.00 0.00 0.00 99 1021.1
20260831040703 19 182 0.0 0.0 0.00 0.00 0.00 99 1021.1
20260831035700 19 182 0.0 0.0 0.00 0.05 0.05 99 1021.3
20260831034700 18 182 0.0 0.0 0.00 0.05 0.05 99 1021.4
20260831033657 18 182 0.0 0.0 0.00 0.05 0.05 99 1021.1
20260831032657 19 182 0.0 0.0 0.00 0.05 0.05 99 1021.1
20260831031653 19 182 0.0 0.0 0.00 0.05 0.05 99 1021.1
20260831030651 19 182 0.0 0.0 0.00 0.05 0.05 99 1021.2
20260831025649 19 182 0.0 0.0 0.00 0.05 0.05 99 1021.4
20260831024647 19 182 0.0 0.0 0.00 0.05 0.05 99 1021.4